sat.trackr.live / text

‹ back to catalog

SHERPA-AC1

NORAD 52763 · 2022-057AH

PAYLOAD ACTIVE UNKNOWN

§ Identity

Operator
Country
US
Launch date
2022-05-25
Launch site
AFETR
Launch vehicle
Mass (kg)
RCS (m²)

External: N2YO · Heavens-Above · Gunter

§ Orbital elements

Epoch: 2026-09-20T09:18:02.931552Z

Period
93.66 min
Inclination
97.6816°
Eccentricity
0.0008631
Mean motion
15.37435038 rev/d
Perigee alt
447.8 km
Apogee alt
459.6 km
Semi-major
6,831.8 km
B*
1.5318e-4
RAAN
56.7485°
Arg perigee
109.7588°
Mean anomaly
250.4588°
Rev number
24,032

§ Raw data

SHERPA-AC11 52763U 22057AH  26263.38753393  .00005539  00000+0  15318-3 0  99912 52763  97.6816  56.7485 0008631 109.7588 250.4588 15.37435038240325

JSON: /api/v1/satellites/52763 · /tle

For live sub-satellite position, see the globe view (requires WebGL).

§ Visibility from observer

Set your observer location to see the next 7 days of passes ≥ 10°. The values pass through the URL so the page stays shareable.

No JS? Fill the form by hand. The geolocation button needs JavaScript.

§ Radio — SatNOGS DB

ModeDescriptionDownlinkUplink
FM GNSS - Xona Huginn 1.260 GHz
FM Mode L 1.616 GHz
FM Mode S 2.245 GHz
FM UHF Unknown 400.500 MHz

4 transmitters · refreshed weekly from db.satnogs.org